SAS987 EKCH-RKSI

Flight info

Callsign SAS987
Flight time N/A
Altitude 35000
Route SIMEG Z493 BILRA DCT XELOL DCT BADNO DCT NAXAR DCT KELEL DCT KEKED DCT BADOR DCT LUGEB/N0485F370 DCT UDROS UM859 KARDE UN644 ROLIN DCT TAGAR DCT BT DCT BARAD M747 SUBUT T916 LEYLA N161 GASBI/K0902F370 N161 MASAV/K0896F390 N161 SARIN/K0896S1190 A368 FKG W188 LIKMI W270 BOTKI/K0895S1250 W270 DKO W69 HUR B339 LADIX W34 VAPGU W100 ORAVA W201 UNSEK A326 DONVO G597 AGAVO/N0489F410 Y644 REBIT REBIT2H
Aircraft A359/H-SDE2E3GHIJ3J4J5LM1ORWXY/LB1D1

Departure

Time 2026-05-04 18:59
Airport Copenhagen Kastrup Airport (EKCH)

Arrival

Time N/A
Airport Incheon International Airport (RKSI)
Time Latitude Longitude Altitude Speed Heading
2026-05-04 18:17 55.62429 12.65071 24 ft 0 kts 269°
2026-05-04 18:42 55.62429 12.65091 24 ft 4 kts 269°
2026-05-04 18:42 55.62430 12.65130 26 ft 3 kts 268°
2026-05-04 18:42 55.62435 12.65173 27 ft 4 kts 233°
2026-05-04 18:42 55.62454 12.65199 29 ft 4 kts 186°
2026-05-04 18:43 55.62456 12.65201 29 ft 4 kts 179°
2026-05-04 18:43 55.62429 12.65202 27 ft 4 kts 179°
2026-05-04 18:43 55.62402 12.65203 27 ft 4 kts 179°
2026-05-04 18:43 55.62375 12.65204 27 ft 4 kts 179°
2026-05-04 18:44 55.62369 12.65204 26 ft 5 kts 179°
2026-05-04 18:48 55.62364 12.65204 26 ft 3 kts 179°
2026-05-04 18:48 55.62332 12.65204 24 ft 6 kts 184°
2026-05-04 18:48 55.62288 12.65163 28 ft 8 kts 230°
2026-05-04 18:49 55.62282 12.65066 25 ft 8 kts 285°
2026-05-04 18:49 55.62312 12.64974 26 ft 9 kts 302°
2026-05-04 18:49 55.62345 12.64874 27 ft 9 kts 290°
2026-05-04 18:49 55.62340 12.64781 26 ft 7 kts 251°
2026-05-04 18:50 55.62325 12.64719 25 ft 0 kts 247°
2026-05-04 18:51 55.62324 12.64712 25 ft 3 kts 247°
2026-05-04 18:51 55.62307 12.64646 28 ft 6 kts 246°
2026-05-04 18:52 55.62297 12.64607 26 ft 0 kts 246°
2026-05-04 18:54 55.62297 12.64606 26 ft 1 kts 246°
2026-05-04 18:55 55.62274 12.64515 27 ft 14 kts 246°
2026-05-04 18:55 55.62120 12.64281 26 ft 14 kts 205°
2026-05-04 18:55 55.62033 12.64208 24 ft 14 kts 205°
2026-05-04 18:56 55.61943 12.64132 26 ft 15 kts 205°
2026-05-04 18:56 55.61846 12.64072 26 ft 14 kts 187°
2026-05-04 18:56 55.61777 12.64077 25 ft 0 kts 175°
2026-05-04 18:57 55.61770 12.64078 24 ft 4 kts 175°
2026-05-04 18:57 55.61709 12.64085 27 ft 13 kts 176°
2026-05-04 18:57 55.61631 12.64071 27 ft 11 kts 203°
2026-05-04 18:57 55.61563 12.63979 30 ft 16 kts 220°
2026-05-04 18:58 55.61376 12.63688 29 ft 64 kts 221°
2026-05-04 18:58 55.60898 12.62946 30 ft 117 kts 221°
2026-05-04 18:58 55.60163 12.61806 29 ft 162 kts 221°
2026-05-04 18:58 55.59294 12.60452 483 ft 163 kts 225°
2026-05-04 18:59 55.58485 12.59114 1111 ft 162 kts 226°
2026-05-04 18:59 55.57617 12.57735 1403 ft 175 kts 224°
2026-05-04 18:59 55.56548 12.56487 1669 ft 193 kts 207°
2026-05-04 18:59 55.55235 12.55581 1926 ft 212 kts 202°
2026-05-04 19:00 55.53770 12.54675 2128 ft 233 kts 202°
2026-05-04 19:00 55.52199 12.53696 2454 ft 249 kts 202°
2026-05-04 19:00 55.50519 12.52639 2996 ft 256 kts 202°
2026-05-04 19:00 55.48908 12.51462 3531 ft 254 kts 223°
2026-05-04 19:01 55.47264 12.50095 3811 ft 267 kts 200°
2026-05-04 19:01 55.45438 12.49529 4558 ft 267 kts 182°
2026-05-04 19:01 55.43613 12.50182 5243 ft 273 kts 158°
2026-05-04 19:01 55.42094 12.52227 5784 ft 282 kts 130°
2026-05-04 19:02 55.41261 12.55366 6352 ft 289 kts 102°
2026-05-04 19:02 55.40830 12.58850 6908 ft 293 kts 105°
2026-05-04 19:02 55.40299 12.62325 7520 ft 296 kts 107°
2026-05-04 19:02 55.39725 12.65823 8149 ft 299 kts 108°
2026-05-04 19:03 55.39133 12.69349 8789 ft 302 kts 108°
2026-05-04 19:03 55.38532 12.72912 9422 ft 305 kts 108°
2026-05-04 19:03 55.37917 12.76515 10041 ft 309 kts 108°
2026-05-04 19:03 55.37281 12.80209 10376 ft 323 kts 108°
2026-05-04 19:04 55.36611 12.84082 10641 ft 339 kts 108°
2026-05-04 19:04 55.35906 12.88143 10915 ft 354 kts 109°
2026-05-04 19:04 55.34937 12.92206 11180 ft 367 kts 119°
2026-05-04 19:04 55.33647 12.96169 11457 ft 380 kts 124°
2026-05-04 19:05 55.32164 13.00092 11736 ft 392 kts 127°
2026-05-04 19:05 55.30588 13.03982 12105 ft 401 kts 128°
2026-05-04 19:05 55.28944 13.07966 12585 ft 406 kts 129°
2026-05-04 19:05 55.27283 13.12004 13136 ft 410 kts 129°
2026-05-04 19:06 55.25612 13.16105 13682 ft 414 kts 128°
2026-05-04 19:06 55.23938 13.20249 14198 ft 418 kts 128°
2026-05-04 19:06 55.22253 13.24445 14698 ft 421 kts 128°
2026-05-04 19:06 55.20568 13.28650 15219 ft 424 kts 128°
2026-05-04 19:07 55.18867 13.32897 15707 ft 427 kts 128°
2026-05-04 19:07 55.17153 13.37167 16192 ft 431 kts 128°
2026-05-04 19:07 55.15424 13.41470 16701 ft 434 kts 128°
2026-05-04 19:07 55.13684 13.45799 17192 ft 436 kts 128°
2026-05-04 19:08 55.11927 13.50147 17721 ft 439 kts 128°
2026-05-04 19:08 55.10155 13.54521 18209 ft 443 kts 128°
2026-05-04 19:08 55.08368 13.58921 18650 ft 446 kts 128°
2026-05-04 19:08 55.06569 13.63344 19096 ft 449 kts 128°
2026-05-04 19:09 55.04755 13.67799 19560 ft 452 kts 128°
2026-05-04 19:09 55.02930 13.72274 20035 ft 455 kts 128°
2026-05-04 19:09 55.01089 13.76781 20516 ft 458 kts 129°
2026-05-04 19:09 54.99254 13.81263 20876 ft 463 kts 129°
2026-05-04 19:10 54.97373 13.85847 21206 ft 469 kts 129°
2026-05-04 19:10 54.95467 13.90484 21640 ft 472 kts 129°
2026-05-04 19:10 54.93546 13.95154 22073 ft 476 kts 130°
2026-05-04 19:10 54.91601 13.99870 22496 ft 480 kts 130°
2026-05-04 19:11 54.89658 14.04575 22935 ft 483 kts 130°
2026-05-04 19:11 54.87683 14.09345 23364 ft 487 kts 130°
2026-05-04 19:11 54.85701 14.14129 23743 ft 491 kts 130°
2026-05-04 19:11 54.83695 14.18959 24114 ft 494 kts 130°
2026-05-04 19:12 54.81677 14.23806 24452 ft 497 kts 130°
2026-05-04 19:12 54.77323 14.33123 25127 ft 495 kts 142°
2026-05-04 19:12 54.74694 14.36907 25498 ft 491 kts 150°
2026-05-04 19:13 54.71918 14.40361 25860 ft 493 kts 151°
2026-05-04 19:13 54.69116 14.43814 26230 ft 495 kts 151°
2026-05-04 19:13 54.66307 14.47287 26584 ft 498 kts 151°
2026-05-04 19:13 54.63515 14.50740 26909 ft 500 kts 151°
2026-05-04 19:14 54.60676 14.54246 27271 ft 503 kts 151°
2026-05-04 19:14 54.57816 14.57773 27611 ft 505 kts 151°
2026-05-04 19:14 54.54948 14.61300 27949 ft 508 kts 151°
2026-05-04 19:14 54.52063 14.64840 28278 ft 510 kts 151°
2026-05-04 19:15 54.49166 14.68389 28597 ft 512 kts 151°
2026-05-04 19:15 54.46254 14.71948 28886 ft 515 kts 151°
2026-05-04 19:15 54.43330 14.75513 29181 ft 517 kts 151°
2026-05-04 19:15 54.40387 14.79097 29471 ft 519 kts 151°
2026-05-04 19:16 54.37433 14.82689 29847 ft 520 kts 152°
2026-05-04 19:16 54.34482 14.86273 30204 ft 518 kts 151°
2026-05-04 19:16 54.31586 14.89788 30716 ft 513 kts 151°
2026-05-04 19:16 54.28650 14.93346 31156 ft 510 kts 151°
2026-05-04 19:17 54.25784 14.96815 31434 ft 510 kts 151°
2026-05-04 19:17 54.22886 15.00306 31730 ft 510 kts 151°
2026-05-04 19:17 54.19982 15.03792 31975 ft 510 kts 151°
2026-05-04 19:17 54.17072 15.07280 32220 ft 511 kts 151°
2026-05-04 19:18 54.14158 15.10768 32519 ft 510 kts 151°
2026-05-04 19:18 54.11257 15.14238 32828 ft 509 kts 151°
2026-05-04 19:18 54.08362 15.17696 33122 ft 508 kts 151°
2026-05-04 19:18 54.05466 15.21148 33404 ft 507 kts 151°
2026-05-04 19:19 54.02579 15.24584 33620 ft 507 kts 150°
2026-05-04 19:19 54.00664 15.26859 33754 ft 508 kts 150°
2026-05-04 19:19 53.97766 15.30296 33974 ft 507 kts 150°
2026-05-04 19:19 53.94873 15.33723 34211 ft 506 kts 150°
2026-05-04 19:20 53.91987 15.37138 34459 ft 505 kts 150°
2026-05-04 19:20 53.89111 15.40536 34674 ft 504 kts 150°
2026-05-04 19:20 53.86233 15.43928 34877 ft 503 kts 150°
2026-05-04 19:21 53.80445 15.50727 34980 ft 509 kts 150°
2026-05-04 19:21 53.74610 15.57560 34979 ft 510 kts 150°
2026-05-04 19:22 53.68784 15.64364 34980 ft 509 kts 150°
2026-05-04 19:22 53.62982 15.71117 34977 ft 509 kts 150°
2026-05-04 19:23 53.57142 15.77890 34969 ft 509 kts 150°
2026-05-04 19:23 53.51304 15.84636 34972 ft 509 kts 150°
2026-05-04 19:24 53.45471 15.91354 34969 ft 509 kts 150°
2026-05-04 19:24 53.39635 15.98051 34963 ft 508 kts 150°
2026-05-04 19:25 53.33804 16.04723 34969 ft 507 kts 150°
2026-05-04 19:25 53.27983 16.11359 34973 ft 506 kts 150°
2026-05-04 19:26 53.22173 16.17961 34966 ft 504 kts 150°
2026-05-04 19:26 53.16408 16.24489 34951 ft 504 kts 150°
2026-05-04 19:27 53.10601 16.31042 34948 ft 503 kts 150°
2026-05-04 19:27 53.04814 16.37556 34954 ft 501 kts 150°
2026-05-04 19:28 52.99038 16.44030 34935 ft 500 kts 150°
2026-05-04 19:28 52.93263 16.50482 34950 ft 500 kts 150°
2026-05-04 19:29 52.87488 16.56914 34948 ft 500 kts 150°
2026-05-04 19:29 52.81696 16.63345 34931 ft 500 kts 150°
2026-05-04 19:30 52.75911 16.69747 34949 ft 501 kts 150°
2026-05-04 19:30 52.70157 16.76095 34946 ft 501 kts 150°
2026-05-04 19:31 52.64360 16.82468 34943 ft 501 kts 150°
2026-05-04 19:31 52.58550 16.88836 34944 ft 502 kts 150°
2026-05-04 19:32 52.52732 16.95193 34946 ft 502 kts 150°
2026-05-04 19:32 52.46911 17.01531 34943 ft 502 kts 150°
2026-05-04 19:33 52.41086 17.07853 34944 ft 502 kts 150°
2026-05-04 19:33 52.35254 17.14163 34940 ft 503 kts 150°
2026-05-04 19:34 52.29403 17.20472 34941 ft 504 kts 150°
2026-05-04 19:34 52.23553 17.26762 34941 ft 504 kts 150°
2026-05-04 19:35 52.17698 17.33037 34942 ft 504 kts 150°
2026-05-04 19:35 52.11836 17.39298 34939 ft 503 kts 150°
2026-05-04 19:36 52.05973 17.45540 34935 ft 503 kts 150°
2026-05-04 19:36 52.00147 17.51723 34937 ft 503 kts 150°
2026-05-04 19:37 51.94281 17.57930 34936 ft 503 kts 150°
2026-05-04 19:37 51.88417 17.64113 34930 ft 503 kts 150°
2026-05-04 19:38 51.82548 17.70284 34940 ft 503 kts 150°
2026-05-04 19:38 51.76676 17.76439 34927 ft 503 kts 150°
2026-05-04 19:39 51.70806 17.82573 34940 ft 502 kts 150°
2026-05-04 19:39 51.64966 17.88653 34937 ft 502 kts 150°
2026-05-04 19:40 51.59087 17.94755 34935 ft 502 kts 150°
2026-05-04 19:40 51.53212 18.00835 34934 ft 502 kts 150°
2026-05-04 19:41 51.47315 18.06920 34925 ft 502 kts 150°
2026-05-04 19:41 51.41433 18.12969 34939 ft 502 kts 150°
2026-05-04 19:42 51.35552 18.18999 34939 ft 501 kts 150°
2026-05-04 19:42 51.29675 18.25006 34939 ft 501 kts 150°
2026-05-04 19:43 51.23807 18.30986 34938 ft 501 kts 150°
2026-05-04 19:43 51.17960 18.36926 34943 ft 501 kts 150°
2026-05-04 19:44 51.12078 18.42883 34943 ft 501 kts 150°
2026-05-04 19:44 51.06200 18.48818 34946 ft 501 kts 150°
2026-05-04 19:45 51.00310 18.54747 34947 ft 500 kts 150°
2026-05-04 19:45 50.94417 18.60661 34952 ft 500 kts 150°
2026-05-04 19:46 50.88530 18.66552 34950 ft 500 kts 150°
2026-05-04 19:46 50.82671 18.72396 34958 ft 500 kts 150°
2026-05-04 19:47 50.76743 18.78292 34958 ft 500 kts 150°
2026-05-04 19:47 50.70843 18.84141 34960 ft 500 kts 150°
2026-05-04 19:48 50.64991 18.89925 34963 ft 500 kts 150°
2026-05-04 19:48 50.59096 18.95736 34984 ft 500 kts 150°
2026-05-04 19:49 50.53196 19.01533 34993 ft 500 kts 150°
2026-05-04 19:49 50.47291 19.07318 34993 ft 500 kts 150°
2026-05-04 19:50 50.41380 19.13091 34993 ft 500 kts 150°
2026-05-04 19:50 50.35470 19.18847 34991 ft 500 kts 150°
2026-05-04 19:51 50.29566 19.24580 34986 ft 499 kts 149°
2026-05-04 19:51 50.23662 19.30296 34986 ft 498 kts 149°
2026-05-04 19:52 50.17755 19.35997 34975 ft 498 kts 149°
2026-05-04 19:52 50.11884 19.41648 34987 ft 499 kts 149°
2026-05-04 19:53 50.05972 19.47321 34989 ft 499 kts 149°
2026-05-04 19:53 50.00068 19.52970 34992 ft 499 kts 149°
2026-05-04 19:54 49.94153 19.58613 34999 ft 498 kts 149°
2026-05-04 19:54 49.88233 19.64245 35000 ft 499 kts 149°
2026-05-04 19:55 49.82319 19.69855 35010 ft 498 kts 149°
2026-05-04 19:55 49.76404 19.75448 35010 ft 498 kts 149°
2026-05-04 19:56 49.70477 19.81039 35015 ft 498 kts 149°
2026-05-04 19:56 49.64558 19.86604 35019 ft 497 kts 149°
2026-05-04 19:57 49.58645 19.92146 35024 ft 497 kts 149°
2026-05-04 19:57 49.52757 19.97651 35030 ft 498 kts 149°
2026-05-04 19:58 49.46825 20.03182 35031 ft 498 kts 149°
2026-05-04 19:58 49.40895 20.08694 35035 ft 498 kts 149°
2026-05-04 19:59 49.34969 20.14186 35038 ft 497 kts 150°
2026-05-04 19:59 49.29269 20.20206 35044 ft 498 kts 143°
2026-05-04 20:00 49.23805 20.26738 35050 ft 498 kts 142°
2026-05-04 20:00 49.18321 20.33213 35070 ft 498 kts 143°
2026-05-04 20:01 49.12781 20.39596 35074 ft 499 kts 144°
2026-05-04 20:01 49.07217 20.45932 35072 ft 499 kts 144°
2026-05-04 20:02 49.01678 20.52216 35064 ft 499 kts 144°
2026-05-04 20:02 48.96110 20.58520 35064 ft 498 kts 144°
2026-05-04 20:03 48.90549 20.64801 35051 ft 498 kts 143°
2026-05-04 20:03 48.85916 20.70023 35050 ft 498 kts 143°
2026-05-04 20:04 48.80349 20.76280 35050 ft 498 kts 143°
2026-05-04 20:04 48.74767 20.82537 35050 ft 498 kts 143°
2026-05-04 20:05 48.69189 20.88771 35051 ft 499 kts 144°
2026-05-04 20:05 48.63606 20.94992 35046 ft 498 kts 143°
2026-05-04 20:06 48.58018 21.01201 35047 ft 498 kts 143°
2026-05-04 20:06 48.52475 21.07344 35047 ft 498 kts 143°
2026-05-04 20:07 48.46884 21.13523 35044 ft 498 kts 143°
2026-05-04 20:07 48.41299 21.19696 35046 ft 499 kts 143°
2026-05-04 20:08 48.35697 21.25898 35044 ft 500 kts 143°
2026-05-04 20:08 48.30093 21.32086 35045 ft 500 kts 143°
2026-05-04 20:09 48.24478 21.38266 35050 ft 500 kts 143°
2026-05-04 20:09 48.18865 21.44424 35050 ft 500 kts 143°
2026-05-04 20:10 48.13243 21.50573 35052 ft 500 kts 143°
2026-05-04 20:10 48.07625 21.56703 35048 ft 500 kts 143°
2026-05-04 20:11 48.02032 21.62788 35046 ft 500 kts 143°
2026-05-04 20:11 47.96405 21.68893 35055 ft 500 kts 143°
2026-05-04 20:12 47.90756 21.75005 35048 ft 502 kts 143°
2026-05-04 20:12 47.85096 21.81113 35044 ft 502 kts 143°
2026-05-04 20:13 47.79426 21.87214 35058 ft 503 kts 143°
2026-05-04 20:13 47.73750 21.93305 35061 ft 503 kts 143°
2026-05-04 20:14 47.68066 21.99388 35064 ft 504 kts 142°
2026-05-04 20:14 47.62412 22.05422 35066 ft 504 kts 142°
2026-05-04 20:15 47.56983 22.11962 35065 ft 501 kts 131°
2026-05-04 20:15 47.52469 22.19799 35069 ft 500 kts 127°
2026-05-04 20:16 47.48159 22.27856 35074 ft 500 kts 126°
2026-05-04 20:16 47.43855 22.35956 35081 ft 500 kts 126°
2026-05-04 20:17 47.39535 22.44012 35078 ft 500 kts 126°
2026-05-04 20:17 47.35196 22.52041 35086 ft 500 kts 126°
2026-05-04 20:18 47.30844 22.60062 35084 ft 500 kts 126°
2026-05-04 20:18 47.26510 22.68025 35091 ft 500 kts 126°
2026-05-04 20:19 47.22156 22.76006 35094 ft 500 kts 126°
2026-05-04 20:19 47.17791 22.83983 35095 ft 500 kts 126°
2026-05-04 20:20 47.13427 22.91935 35104 ft 500 kts 127°
2026-05-04 20:20 47.09057 22.99876 35104 ft 500 kts 127°
2026-05-04 20:21 47.04706 23.07758 35113 ft 500 kts 127°
2026-05-04 20:21 46.98133 23.19624 35112 ft 499 kts 127°
2026-05-04 20:22 46.93754 23.27503 35108 ft 499 kts 127°
2026-05-04 20:22 46.89363 23.35379 35108 ft 499 kts 127°
2026-05-04 20:23 46.84969 23.43236 35107 ft 499 kts 127°
2026-05-04 20:23 46.80568 23.51085 35079 ft 499 kts 127°
2026-05-04 20:24 46.76190 23.58870 35075 ft 500 kts 127°
2026-05-04 20:24 46.71781 23.66690 35075 ft 500 kts 127°
2026-05-04 20:25 46.67358 23.74510 35075 ft 500 kts 127°
2026-05-04 20:25 46.62931 23.82316 35086 ft 500 kts 127°
2026-05-04 20:26 46.58496 23.90113 35092 ft 500 kts 127°
2026-05-04 20:26 46.54054 23.97902 35078 ft 500 kts 127°
2026-05-04 20:27 46.49633 24.05631 35086 ft 500 kts 128°
2026-05-04 20:27 46.45185 24.13386 35078 ft 500 kts 128°
2026-05-04 20:28 46.40729 24.21133 35071 ft 500 kts 128°
2026-05-04 20:28 46.36263 24.28875 35071 ft 500 kts 128°
2026-05-04 20:29 46.31790 24.36608 35075 ft 500 kts 128°
2026-05-04 20:29 46.27317 24.44320 35074 ft 500 kts 128°
2026-05-04 20:30 46.22832 24.52030 35074 ft 501 kts 128°
2026-05-04 20:30 46.18347 24.59719 35075 ft 501 kts 128°
2026-05-04 20:31 46.13878 24.67359 35074 ft 500 kts 128°
2026-05-04 20:31 46.09381 24.75027 35078 ft 500 kts 128°
2026-05-04 20:32 46.04899 24.82646 35077 ft 500 kts 128°
2026-05-04 20:32 46.00382 24.90305 35079 ft 500 kts 128°
2026-05-04 20:33 45.95884 24.97912 35083 ft 500 kts 129°
2026-05-04 20:33 45.91384 25.05500 35085 ft 500 kts 129°
2026-05-04 20:34 45.86847 25.13128 35084 ft 500 kts 129°
2026-05-04 20:34 45.82315 25.20729 35080 ft 500 kts 129°
2026-05-04 20:35 45.77800 25.28279 35095 ft 501 kts 129°
2026-05-04 20:35 45.73250 25.35868 35085 ft 501 kts 129°
2026-05-04 20:36 45.68720 25.43403 35096 ft 502 kts 129°
2026-05-04 20:36 45.64165 25.50959 35085 ft 501 kts 129°
2026-05-04 20:37 45.59621 25.58477 35090 ft 501 kts 129°
2026-05-04 20:37 45.55048 25.66021 35104 ft 501 kts 129°
2026-05-04 20:38 45.50481 25.73535 35094 ft 501 kts 129°
2026-05-04 20:38 45.46204 25.81249 35088 ft 497 kts 118°
2026-05-04 20:39 45.44107 25.85163 35129 ft 498 kts 130°
2026-05-04 20:39 45.41749 25.88832 35094 ft 501 kts 134°
2026-05-04 20:39 45.36850 25.95875 35093 ft 503 kts 133°
2026-05-04 20:40 45.32067 26.03130 35094 ft 501 kts 132°
2026-05-04 20:40 45.27445 26.10526 35085 ft 499 kts 131°
2026-05-04 20:41 45.22900 26.17915 35081 ft 499 kts 131°
2026-05-04 20:41 45.18328 26.25329 35073 ft 499 kts 131°
2026-05-04 20:42 45.13769 26.32683 35063 ft 498 kts 131°
2026-05-04 20:42 45.09169 26.40073 35053 ft 498 kts 131°
2026-05-04 20:43 45.04600 26.47390 35046 ft 498 kts 131°
2026-05-04 20:43 45.00024 26.54703 35043 ft 498 kts 131°
2026-05-04 20:44 44.95432 26.62019 35038 ft 496 kts 131°
2026-05-04 20:44 44.90841 26.69318 35037 ft 496 kts 131°
2026-05-04 20:45 44.86278 26.76554 35034 ft 496 kts 131°
2026-05-04 20:45 44.81666 26.83847 35034 ft 497 kts 131°
2026-05-04 20:46 44.77079 26.91084 35034 ft 498 kts 131°
2026-05-04 20:46 44.72452 26.98363 35034 ft 498 kts 131°
2026-05-04 20:47 44.67823 27.05626 35036 ft 498 kts 131°
2026-05-04 20:47 44.63190 27.12876 35039 ft 498 kts 131°
2026-05-04 20:48 44.58580 27.20073 35037 ft 498 kts 131°
2026-05-04 20:48 44.53944 27.27292 35035 ft 498 kts 131°
2026-05-04 20:49 44.49297 27.34506 35043 ft 497 kts 131°
2026-05-04 20:49 44.44685 27.41649 35042 ft 496 kts 131°
2026-05-04 20:50 44.40044 27.48823 35043 ft 496 kts 131°
2026-05-04 20:50 44.35435 27.55926 35035 ft 496 kts 131°
2026-05-04 20:51 44.30791 27.63066 35045 ft 496 kts 131°
2026-05-04 20:51 44.26902 27.69036 35046 ft 496 kts 129°
2026-05-04 20:52 44.22454 27.76315 35046 ft 496 kts 126°
2026-05-04 20:52 44.17925 27.83598 35056 ft 497 kts 127°
2026-05-04 20:53 44.13292 27.90750 35052 ft 497 kts 128°
2026-05-04 20:53 44.08612 27.97845 35053 ft 497 kts 128°
2026-05-04 20:54 44.03925 28.04925 35053 ft 497 kts 128°
2026-05-04 20:54 43.99236 28.12002 35052 ft 497 kts 128°
2026-05-04 20:55 43.94537 28.19088 35053 ft 498 kts 128°